"startDT [UTC]","vpos","CH4 [ppm]","stdev(CH4) [ppm]","CO2 [ppm]","stdev(CO2) [ppm]","H2O_reported [%]","stdev(H2O_reported)","CavityPressure [torr]","CavityTemp [C]","OutletValve","CH4_dry [ppm]","CO2_dry [ppm]","DasTemp [C]","EtalonTemp [C]","WarmBoxTemp [C]","MPVPosition","T_ECpre [C]","T_EC1 [C]","T_EC2 [C]","p_inlet [hPa]","p_in [hPa]","p_out [hPa]","T_inlet [C]","RH_inlet [%]","dwpt_inlet [C]","T_vent [C]","RH_vent [%]","dwpt_vent [C]","flow_vent [l min-1]","flow_inlet [l min-1]","dwpt_sample [C]","T_room [C]"
2015-05-21 00:00:00,0.0,1.90478,0.00031,403.559,0.026,0.3652,0.0015,140.000,45.000,34158.10549,1.91169,405.348,32.242,45.068,45.000,0.00,0.09,-272.71,-272.77,-1,969,-2,20.7,11.1,-10.7,20.5,11.4,-10.6,5.73,2.01,-9.4,25.5
2015-05-21 00:01:00,0.0,1.90483,0.00048,403.558,0.032,0.3631,0.0022,140.000,45.000,34156.43512,1.91176,405.341,32.248,45.068,45.000,0.00,0.09,-272.71,-272.78,-1,969,-2,20.7,11.1,-10.8,20.5,11.3,-10.6,5.73,1.98,-9.3,25.5
2015-05-21 00:02:00,0.0,1.90475,0.00052,403.569,0.028,0.3628,0.0011,140.003,45.000,34160.27685,1.91157,405.346,32.249,45.068,45.000,0.00,0.09,-272.72,-272.79,-0,968,-2,20.7,11.0,-10.8,20.5,11.3,-10.7,5.73,1.94,-9.4,25.4
2015-05-21 00:03:00,0.0,1.90469,0.00045,403.536,0.029,0.3616,0.0011,139.997,45.000,34157.52080,1.91155,405.310,32.249,45.068,45.000,0.00,0.09,-272.71,-272.78,-0,967,-2,20.7,11.0,-10.8,20.5,11.3,-10.7,5.73,1.94,-9.4,25.5
2015-05-21 00:04:00,0.0,1.90485,0.00029,403.543,0.021,0.3614,0.0019,140.004,45.000,34160.36251,1.91168,405.315,32.244,45.068,45.000,0.00,0.09,-272.72,-272.77,-1,967,-2,20.7,11.0,-10.8,20.5,11.3,-10.7,5.73,1.96,-9.4,25.5
2015-05-21 00:05:00,0.0,1.90477,0.00044,403.537,0.029,0.3634,0.0010,139.994,45.000,34158.42289,1.91168,405.317,32.242,45.068,45.000,0.00,0.09,-272.72,-272.78,-1,968,-2,20.7,11.1,-10.8,20.5,11.3,-10.6,5.73,2.00,-9.4,25.5
2015-05-21 00:06:00,0.0,1.90459,0.00038,403.525,0.036,0.3648,0.0018,139.993,45.000,34159.27723,1.91151,405.316,32.244,45.068,45.000,0.00,0.09,-272.73,-272.78,-1,969,-1,20.7,11.1,-10.7,20.5,11.4,-10.6,5.73,2.02,-9.4,25.4
2015-05-21 00:07:00,0.0,1.90470,0.00043,403.530,0.035,0.3670,0.0025,139.999,45.000,34160.67568,1.91162,405.328,32.233,45.068,45.000,0.00,0.09,-272.72,-272.78,-1,969,-2,20.7,11.2,-10.6,20.5,11.4,-10.5,5.73,2.01,-9.4,25.4
2015-05-21 00:08:00,0.0,1.90480,0.00033,403.514,0.035,0.3674,0.0020,140.002,45.000,34160.36517,1.91174,405.313,32.213,45.068,45.000,0.00,0.09,-272.72,-272.78,-1,968,-1,20.7,11.2,-10.6,20.5,11.5,-10.5,5.73,1.99,-9.3,25.4
2015-05-21 00:09:00,0.0,1.90477,0.00030,403.515,0.033,0.3684,0.0014,139.999,45.000,34159.21916,1.91176,405.326,32.203,45.068,45.000,0.00,0.09,-272.72,-272.79,-1,968,-2,20.7,11.3,-10.5,20.5,11.5,-10.4,5.73,1.95,-9.4,25.4
2015-05-21 00:10:00,0.0,1.90473,0.00041,403.498,0.031,0.3675,0.0020,140.001,45.000,34161.10755,1.91169,405.297,32.188,45.068,45.000,0.00,0.09,-272.71,-272.77,-1,967,-2,20.7,11.2,-10.6,20.5,11.5,-10.4,5.73,1.94,-9.4,25.4
2015-05-21 00:11:00,0.0,1.90484,0.00019,403.543,0.038,0.3677,0.0020,139.995,45.000,34159.18399,1.91181,405.347,32.189,45.068,45.000,0.00,0.09,-272.72,-272.77,-2,969,-2,20.7,11.2,-10.6,20.5,11.5,-10.5,5.73,1.95,-9.4,25.5
2015-05-21 00:12:00,0.0,1.90490,0.00030,403.514,0.032,0.3674,0.0013,140.000,45.000,34160.31851,1.91186,405.316,32.188,45.068,45.000,0.00,0.09,-272.72,-272.78,-1,969,-2,20.7,11.2,-10.6,20.5,11.5,-10.5,5.73,1.98,-9.4,25.5
2015-05-21 00:13:00,0.0,1.90505,0.00042,403.526,0.027,0.3664,0.0015,139.999,45.000,34159.13405,1.91198,405.323,32.180,45.068,45.000,0.00,0.09,-272.73,-272.76,-1,969,-1,20.7,11.2,-10.6,20.5,11.5,-10.5,5.73,2.02,-9.4,25.5
2015-05-21 00:14:00,0.0,1.90504,0.00038,403.521,0.031,0.3672,0.0010,139.999,45.000,34161.09413,1.91206,405.321,32.180,45.069,45.000,0.00,0.09,-272.72,-272.77,-1,968,-2,20.7,11.2,-10.6,20.5,11.5,-10.5,5.73,2.02,-9.4,25.4
2015-05-21 00:15:00,0.0,1.90455,0.00051,403.515,0.028,0.3657,0.0023,140.001,45.000,34162.57853,1.91147,405.308,32.174,45.068,45.000,0.00,0.09,-272.72,-272.78,-0,968,-2,20.7,11.2,-10.6,20.5,11.5,-10.5,5.73,1.99,-9.4,25.4
2015-05-21 00:16:00,0.0,1.90449,0.00027,403.506,0.025,0.3653,0.0015,140.004,45.000,34163.21211,1.91139,405.298,32.175,45.068,45.000,0.00,0.09,-272.72,-272.79,-1,967,-1,20.6,11.2,-10.7,20.5,11.4,-10.5,5.73,1.96,-9.4,25.4
2015-05-21 00:17:00,0.0,1.90440,0.00027,403.521,0.040,0.3637,0.0020,139.996,45.000,34159.10344,1.91129,405.303,32.152,45.068,45.000,0.00,0.09,-272.71,-272.77,-1,968,-1,20.7,11.1,-10.7,20.5,11.4,-10.6,5.73,1.94,-9.4,25.4
2015-05-21 00:18:00,0.0,1.90424,0.00028,403.526,0.037,0.3648,0.0027,140.000,45.000,34158.23797,1.91116,405.315,32.143,45.068,45.000,0.00,0.09,-272.72,-272.77,-1,969,-1,20.7,11.1,-10.7,20.5,11.4,-10.6,5.73,1.95,-9.4,25.4
2015-05-21 00:19:00,0.0,1.90423,0.00035,403.519,0.048,0.3680,0.0014,140.001,45.000,34156.85414,1.91119,405.323,32.136,45.068,45.000,0.00,0.09,-272.73,-272.79,-1,969,-1,20.7,11.2,-10.6,20.5,11.5,-10.5,5.73,1.98,-9.4,25.4
2015-05-21 00:20:00,0.0,1.90425,0.00033,403.489,0.035,0.3698,0.0019,140.000,45.000,34157.49694,1.91125,405.302,32.138,45.068,45.000,0.00,0.09,-272.72,-272.77,-1,968,-1,20.7,11.3,-10.5,20.5,11.5,-10.4,5.73,2.01,-9.4,25.4
2015-05-21 00:21:00,0.0,1.90414,0.00025,403.482,0.027,0.3714,0.0016,139.998,45.000,34155.55114,1.91115,405.304,32.138,45.068,45.000,0.00,0.09,-272.72,-272.77,-1,967,-1,20.6,11.3,-10.5,20.4,11.6,-10.3,5.73,2.02,-9.4,25.4
2015-05-21 00:22:00,0.0,1.90434,0.00034,403.497,0.032,0.3726,0.0020,139.999,45.000,34156.74191,1.91141,405.325,32.144,45.068,45.000,0.00,0.09,-272.73,-272.78,-1,967,-1,20.7,11.4,-10.4,20.5,11.7,-10.3,5.73,2.01,-9.4,25.4
2015-05-21 00:23:00,0.0,1.90459,0.00034,403.526,0.033,0.3742,0.0022,139.998,45.000,34155.63683,1.91166,405.359,32.153,45.068,45.000,0.00,0.09,-272.72,-272.79,-1,969,-1,20.7,11.4,-10.4,20.4,11.7,-10.2,5.73,1.97,-9.4,25.4
2015-05-21 00:24:00,0.0,1.90472,0.00039,403.495,0.035,0.3745,0.0017,140.004,45.000,34156.46717,1.91182,405.333,32.163,45.068,45.000,0.00,0.09,-272.72,-272.77,-1,969,-1,20.7,11.5,-10.3,20.4,11.7,-10.2,5.73,1.94,-9.4,25.4
2015-05-21 00:25:00,0.0,1.90402,0.00042,403.481,0.023,0.3759,0.0016,140.007,45.000,34159.50284,1.91115,405.324,32.183,45.068,45.000,0.00,0.09,-272.71,-272.78,-1,968,-1,20.7,11.5,-10.3,20.4,11.8,-10.2,5.73,1.93,-9.4,25.5
2015-05-21 00:26:00,0.0,1.90426,0.00045,403.496,0.025,0.3732,0.0026,139.990,45.000,34153.72751,1.91131,405.328,32.185,45.068,45.000,0.00,0.09,-272.73,-272.77,-0,969,-1,20.7,11.4,-10.4,20.4,11.7,-10.2,5.73,1.96,-9.4,25.5
2015-05-21 00:27:00,0.0,1.90432,0.00023,403.495,0.036,0.3696,0.0026,140.000,45.000,34156.53576,1.91134,405.307,32.189,45.068,45.000,0.00,0.09,-272.72,-272.77,-0,968,-1,20.6,11.3,-10.5,20.5,11.6,-10.3,5.73,2.03,-9.4,25.5
2015-05-21 00:28:00,0.0,1.90427,0.00038,403.494,0.021,0.3688,0.0020,139.999,45.000,34153.78628,1.91125,405.300,32.228,45.068,45.000,0.00,0.09,-272.72,-272.77,-0,968,-1,20.6,11.3,-10.5,20.4,11.6,-10.4,5.73,2.02,-9.4,25.5
2015-05-21 00:29:00,0.0,1.90419,0.00040,403.491,0.038,0.3691,0.0015,140.001,45.000,34154.68491,1.91115,405.302,32.254,45.068,45.000,0.00,0.09,-272.72,-272.78,-1,966,-1,20.6,11.3,-10.5,20.5,11.6,-10.4,5.73,1.94,-9.4,25.5
2015-05-21 00:30:00,0.0,1.90429,0.00040,403.527,0.022,0.3681,0.0017,140.000,45.001,34154.62630,1.91130,405.331,32.309,45.069,45.000,0.00,0.09,-272.72,-272.78,-1,965,-1,20.6,11.3,-10.6,20.4,11.5,-10.4,5.73,1.93,-9.4,25.6
2015-05-21 00:31:00,0.0,1.90404,0.00036,403.513,0.021,0.3670,0.0019,140.000,45.001,34155.11780,1.91095,405.315,32.324,45.069,45.000,0.00,0.09,-272.71,-272.77,-0,965,-2,20.5,11.3,-10.6,20.4,11.5,-10.5,5.73,2.03,-9.4,25.6
2015-05-21 00:32:00,0.0,1.90402,0.00041,403.497,0.028,0.3651,0.0018,140.002,45.001,34154.70775,1.91097,405.285,32.368,45.069,45.001,0.00,0.09,-272.72,-272.78,-0,965,-1,20.5,11.2,-10.7,20.4,11.4,-10.5,5.73,2.03,-9.4,25.6
2015-05-21 00:33:00,0.0,1.90447,0.00030,403.531,0.028,0.3634,0.0027,140.003,45.001,34152.03457,1.91131,405.313,32.378,45.069,45.000,0.00,0.09,-272.75,-272.78,0,963,-1,20.5,11.2,-10.7,20.5,11.4,-10.5,5.73,1.92,-9.3,25.6
2015-05-21 00:34:00,0.0,1.90404,0.00047,403.554,0.028,0.3642,0.0015,140.002,45.001,34151.76055,1.91097,405.339,32.416,45.068,45.000,0.00,0.09,-272.72,-272.77,0,963,-1,20.5,11.2,-10.7,20.5,11.4,-10.6,5.73,1.92,-9.3,25.6
2015-05-21 00:35:00,0.0,1.90431,0.00029,403.555,0.034,0.3617,0.0018,139.999,45.000,34150.86502,1.91119,405.332,32.430,45.068,45.000,0.00,0.09,-272.72,-272.78,-0,965,-1,20.6,11.1,-10.8,20.4,11.3,-10.6,5.73,2.02,-9.5,25.6
2015-05-21 00:36:00,0.0,1.90442,0.00029,403.540,0.032,0.3615,0.0012,140.006,45.000,34155.82688,1.91123,405.310,32.426,45.068,45.000,0.00,0.09,-272.73,-272.78,-1,965,-1,20.6,11.1,-10.8,20.5,11.3,-10.6,5.73,2.04,-9.4,25.6
2015-05-21 00:37:00,0.0,1.90448,0.00026,403.510,0.026,0.3626,0.0013,139.998,45.000,34155.18707,1.91140,405.290,32.412,45.068,45.000,0.00,0.09,-272.72,-272.77,-1,966,-1,20.6,11.2,-10.7,20.5,11.4,-10.6,5.73,1.97,-9.4,25.5
2015-05-21 00:38:00,0.0,1.90467,0.00050,403.513,0.029,0.3635,0.0022,139.998,45.000,34155.11032,1.91152,405.294,32.389,45.068,45.000,0.00,0.09,-272.72,-272.77,-1,966,-1,20.6,11.2,-10.7,20.5,11.4,-10.6,5.73,1.93,-9.4,25.5
2015-05-21 00:39:00,0.0,1.90445,0.00028,403.517,0.023,0.3636,0.0015,140.003,45.000,34157.73972,1.91132,405.300,32.375,45.068,45.000,0.00,0.09,-272.73,-272.78,-0,966,-1,20.6,11.2,-10.7,20.5,11.4,-10.6,5.73,1.93,-9.4,25.5
2015-05-21 00:40:00,0.0,1.90453,0.00025,403.539,0.035,0.3669,0.0019,139.998,45.000,34157.24004,1.91148,405.337,32.366,45.068,45.000,0.00,0.09,-272.72,-272.78,-0,966,-1,20.7,11.2,-10.6,20.5,11.4,-10.5,5.73,1.97,-9.4,25.5
2015-05-21 00:41:00,0.0,1.90435,0.00046,403.515,0.027,0.3653,0.0009,139.993,45.000,34157.29380,1.91131,405.310,32.319,45.068,45.000,0.00,0.09,-272.72,-272.77,0,966,-1,20.7,11.2,-10.6,20.5,11.4,-10.5,5.73,2.01,-9.4,25.5
2015-05-21 00:42:00,0.0,1.90428,0.00044,403.514,0.044,0.3652,0.0016,139.998,45.000,34159.34698,1.91117,405.302,32.314,45.068,45.000,0.00,0.09,-272.72,-272.78,-1,966,-1,20.7,11.2,-10.6,20.5,11.4,-10.5,5.73,2.03,-9.4,25.5
2015-05-21 00:43:00,0.0,1.90434,0.00031,403.532,0.032,0.3673,0.0012,140.004,45.000,34159.64654,1.91129,405.334,32.312,45.068,45.000,0.00,0.09,-272.73,-272.79,-1,967,-1,20.7,11.2,-10.6,20.5,11.5,-10.5,5.73,2.01,-9.4,25.5
2015-05-21 00:44:00,0.0,1.90416,0.00032,403.501,0.025,0.3678,0.0021,139.999,45.000,34160.64466,1.91114,405.305,32.294,45.068,45.000,0.00,0.09,-272.72,-272.77,-1,968,-1,20.7,11.2,-10.6,20.5,11.5,-10.4,5.73,1.97,-9.4,25.4
2015-05-21 00:45:00,0.0,1.90436,0.00033,403.490,0.023,0.3682,0.0014,140.004,45.000,34161.66295,1.91134,405.294,32.258,45.068,45.000,0.00,0.09,-272.72,-272.78,-1,968,-1,20.7,11.3,-10.5,20.5,11.5,-10.4,5.73,1.94,-9.4,25.4
2015-05-21 00:46:00,0.0,1.90429,0.00025,403.508,0.023,0.3683,0.0015,140.004,45.000,34161.45512,1.91127,405.316,32.250,45.068,45.000,0.00,0.09,-272.72,-272.79,-1,967,-1,20.7,11.2,-10.5,20.5,11.5,-10.4,5.73,1.94,-9.4,25.4
2015-05-21 00:47:00,0.0,1.90430,0.00034,403.498,0.017,0.3662,0.0014,139.995,45.000,34162.23366,1.91120,405.293,32.251,45.068,45.000,0.00,0.09,-272.72,-272.77,-1,967,-1,20.7,11.2,-10.6,20.5,11.5,-10.5,5.73,1.96,-9.4,25.4
2015-05-21 00:48:00,0.0,1.90442,0.00035,403.512,0.038,0.3675,0.0017,140.002,45.000,34161.30326,1.91139,405.315,32.250,45.068,45.000,0.00,0.09,-272.72,-272.77,-1,968,-1,20.7,11.2,-10.6,20.5,11.4,-10.5,5.73,1.98,-9.4,25.5
2015-05-21 00:49:00,0.0,1.90418,0.00044,403.510,0.021,0.3682,0.0016,139.999,45.000,34160.42838,1.91113,405.314,32.250,45.068,45.000,0.00,0.09,-272.72,-272.78,-1,969,-1,20.7,11.2,-10.6,20.5,11.5,-10.4,5.73,2.02,-9.4,25.5
2015-05-21 00:50:00,0.0,1.90455,0.00034,403.511,0.026,0.3680,0.0022,140.001,45.000,34157.00640,1.91152,405.316,32.247,45.068,45.000,0.00,0.09,-272.72,-272.78,-1,968,-1,20.7,11.3,-10.5,20.5,11.5,-10.4,5.73,2.02,-9.5,25.5
2015-05-21 00:51:00,0.0,1.90478,0.00039,403.505,0.027,0.3685,0.0021,139.997,45.000,34156.72737,1.91178,405.313,32.247,45.068,45.000,0.00,0.09,-272.72,-272.77,-0,968,-1,20.7,11.2,-10.5,20.5,11.5,-10.4,5.73,2.00,-9.4,25.5
2015-05-21 00:52:00,0.0,1.90475,0.00034,403.530,0.026,0.3691,0.0016,140.000,45.000,34157.14803,1.91170,405.339,32.250,45.068,45.000,0.00,0.09,-272.72,-272.78,-0,967,-1,20.7,11.3,-10.5,20.5,11.5,-10.4,5.73,1.93,-9.4,25.5
2015-05-21 00:53:00,0.0,1.90490,0.00028,403.500,0.046,0.3692,0.0021,139.997,45.000,34154.32205,1.91194,405.311,32.272,45.068,45.000,0.00,0.09,-272.72,-272.78,0,966,-1,20.7,11.3,-10.5,20.5,11.5,-10.4,5.73,1.91,-9.3,25.5
2015-05-21 00:54:00,0.0,1.90505,0.00025,403.496,0.036,0.3689,0.0015,140.001,45.000,34152.14787,1.91201,405.303,32.307,45.068,45.000,0.00,0.09,-272.72,-272.77,-0,967,-1,20.6,11.3,-10.5,20.5,11.5,-10.4,5.73,1.99,-9.4,25.6
2015-05-21 00:55:00,0.0,1.90521,0.00050,403.517,0.034,0.3661,0.0014,139.996,45.001,34147.62229,1.91213,405.311,32.324,45.068,45.000,0.00,0.09,-272.72,-272.77,-1,967,-1,20.6,11.2,-10.6,20.5,11.5,-10.5,5.73,2.05,-9.4,25.6
2015-05-21 00:56:00,0.0,1.90547,0.00039,403.531,0.029,0.3670,0.0016,139.999,45.000,34146.21071,1.91240,405.332,32.367,45.068,45.000,0.00,0.09,-272.73,-272.78,-1,965,-1,20.6,11.3,-10.6,20.5,11.5,-10.5,5.73,1.98,-9.4,25.6
2015-05-21 00:57:00,0.0,1.90577,0.00034,403.533,0.031,0.3661,0.0014,139.995,45.000,34142.33569,1.91273,405.332,32.380,45.068,45.000,0.00,0.09,-272.72,-272.79,-0,964,-1,20.6,11.2,-10.6,20.5,11.4,-10.5,5.73,1.90,-9.4,25.6
2015-05-21 00:58:00,0.0,1.90536,0.00044,403.502,0.030,0.3682,0.0019,139.997,45.001,34143.60345,1.91234,405.305,32.421,45.068,45.000,0.00,0.09,-272.72,-272.78,0,965,-1,20.6,11.3,-10.5,20.5,11.5,-10.4,5.73,1.97,-9.4,25.6
2015-05-21 00:59:00,0.0,1.90496,0.00052,403.489,0.026,0.3714,0.0020,140.004,45.001,34148.46135,1.91199,405.310,32.437,45.068,45.000,0.00,0.09,-272.72,-272.78,-1,965,-1,20.6,11.4,-10.4,20.5,11.6,-10.3,5.73,2.04,-9.4,25.6
2015-05-21 01:00:00,0.0,1.90509,0.00029,403.494,0.023,0.3720,0.0018,140.001,45.000,34149.25539,1.91217,405.315,32.438,45.068,45.000,0.00,0.09,-272.72,-272.79,-1,963,-1,20.6,11.5,-10.4,20.5,11.6,-10.3,5.73,2.00,-9.4,25.5
2015-05-21 01:01:00,0.0,1.90508,0.00041,403.469,0.024,0.3736,0.0017,140.001,45.000,34149.85569,1.91213,405.303,32.438,45.068,45.000,0.00,0.09,-272.72,-272.77,-1,963,-1,20.6,11.5,-10.3,20.5,11.7,-10.2,5.73,1.92,-9.4,25.6
2015-05-21 01:02:00,0.0,1.90517,0.00028,403.491,0.046,0.3734,0.0024,140.002,45.000,34150.69829,1.91227,405.323,32.426,45.068,45.000,0.00,0.09,-272.72,-272.77,-0,964,-1,20.6,11.5,-10.3,20.5,11.7,-10.2,5.73,1.93,-9.4,25.5
2015-05-21 01:03:00,0.0,1.90504,0.00033,403.469,0.028,0.3765,0.0023,140.004,45.000,34153.18493,1.91218,405.313,32.382,45.068,45.000,0.00,0.09,-272.73,-272.78,-0,964,-1,20.7,11.5,-10.2,20.5,11.8,-10.1,5.73,2.00,-9.3,25.5
2015-05-21 01:04:00,0.0,1.90474,0.00031,403.459,0.036,0.3788,0.0015,139.996,45.000,34152.83515,1.91188,405.319,32.359,45.068,45.000,0.00,0.09,-272.72,-272.78,-1,966,-2,20.7,11.6,-10.2,20.5,11.8,-10.0,5.73,2.02,-9.4,25.4
2015-05-21 01:05:00,0.0,1.90497,0.00039,403.476,0.031,0.3762,0.0022,140.001,45.000,34156.86573,1.91215,405.321,32.306,45.068,45.000,0.00,0.09,-272.72,-272.77,-1,967,-1,20.7,11.5,-10.2,20.5,11.8,-10.1,5.73,2.01,-9.4,25.3
2015-05-21 01:06:00,0.0,1.90506,0.00040,403.481,0.033,0.3748,0.0025,140.003,45.000,34160.25476,1.91212,405.320,32.265,45.069,45.000,0.00,0.09,-272.72,-272.78,-1,968,-1,20.7,11.5,-10.3,20.6,11.7,-10.1,5.73,1.99,-9.4,25.3
2015-05-21 01:07:00,0.0,1.90521,0.00038,403.464,0.020,0.3722,0.0016,139.997,45.000,34160.82029,1.91229,405.289,32.242,45.069,45.000,0.00,0.09,-272.72,-272.77,-1,967,-1,20.8,11.3,-10.4,20.6,11.6,-10.2,5.73,1.97,-9.4,25.3
2015-05-21 01:08:00,0.0,1.90524,0.00037,403.479,0.025,0.3673,0.0020,140.000,45.000,34163.43485,1.91215,405.281,32.204,45.069,45.000,0.00,0.09,-272.72,-272.77,-1,969,-2,20.8,11.2,-10.5,20.6,11.5,-10.4,5.73,1.96,-9.4,25.4
2015-05-21 01:09:00,0.0,1.90565,0.00040,403.511,0.033,0.3669,0.0011,139.997,45.000,34162.22075,1.91261,405.311,32.188,45.069,45.000,0.00,0.09,-272.72,-272.77,-1,969,-1,20.8,11.1,-10.6,20.6,11.4,-10.4,5.73,1.94,-9.4,25.4
2015-05-21 01:10:00,0.0,1.90574,0.00050,403.520,0.031,0.3642,0.0023,139.998,45.000,34159.52842,1.91262,405.306,32.183,45.069,45.000,0.00,0.09,-272.72,-272.78,-1,967,-1,20.8,11.1,-10.6,20.6,11.4,-10.5,5.73,1.95,-9.3,25.4
2015-05-21 01:11:00,0.0,1.90536,0.00027,403.506,0.040,0.3654,0.0014,139.997,45.000,34159.08318,1.91231,405.297,32.177,45.068,45.000,0.00,0.09,-272.72,-272.79,-1,969,-2,20.8,11.1,-10.7,20.6,11.3,-10.5,5.73,1.97,-9.4,25.4
2015-05-21 01:12:00,0.0,1.90520,0.00037,403.504,0.039,0.3646,0.0017,139.998,45.000,34159.13859,1.91212,405.293,32.172,45.068,45.000,0.00,0.09,-272.72,-272.78,-1,969,-2,20.8,11.1,-10.7,20.5,11.4,-10.6,5.73,1.99,-9.4,25.5
2015-05-21 01:13:00,0.0,1.90496,0.00043,403.508,0.039,0.3649,0.0014,140.001,45.000,34160.21587,1.91190,405.296,32.188,45.068,45.000,0.00,0.09,-272.72,-272.79,-1,969,-2,20.7,11.1,-10.7,20.5,11.3,-10.6,5.73,2.03,-9.4,25.5
2015-05-21 01:14:00,0.0,1.90511,0.00034,403.510,0.032,0.3642,0.0016,140.001,45.000,34159.26655,1.91196,405.295,32.197,45.068,45.000,0.00,0.09,-272.72,-272.78,-1,969,-1,20.7,11.1,-10.7,20.5,11.3,-10.6,5.73,2.02,-9.4,25.5
2015-05-21 01:15:00,0.0,1.90537,0.00044,403.515,0.024,0.3636,0.0012,139.998,45.000,34160.73594,1.91223,405.297,32.228,45.068,45.000,0.00,0.09,-272.72,-272.77,-1,969,-1,20.7,11.1,-10.7,20.5,11.3,-10.6,5.73,1.95,-9.4,25.5
2015-05-21 01:16:00,0.0,1.90553,0.00035,403.513,0.029,0.3658,0.0018,139.997,45.000,34157.03279,1.91245,405.309,32.250,45.068,45.000,0.00,0.09,-272.72,-272.78,-1,968,-1,20.7,11.1,-10.7,20.5,11.3,-10.6,5.73,1.91,-9.3,25.6
2015-05-21 01:17:00,0.0,1.90567,0.00018,403.507,0.037,0.3620,0.0025,139.998,45.000,34156.04453,1.91255,405.283,32.301,45.068,45.000,0.00,0.09,-272.73,-272.78,-1,967,-1,20.7,11.1,-10.8,20.5,11.3,-10.6,5.73,1.98,-9.4,25.6
2015-05-21 01:18:00,0.0,1.90540,0.00035,403.528,0.030,0.3605,0.0015,139.996,45.001,34152.51370,1.91226,405.293,32.338,45.068,45.000,0.00,0.09,-272.72,-272.78,-0,965,-2,20.6,11.0,-10.9,20.5,11.2,-10.7,5.73,2.05,-9.4,25.6
2015-05-21 01:19:00,0.0,1.90515,0.00035,403.519,0.027,0.3588,0.0012,140.002,45.000,34155.76222,1.91195,405.278,32.360,45.068,45.000,0.00,0.09,-272.72,-272.78,0,965,-1,20.6,11.0,-10.9,20.5,11.2,-10.7,5.73,2.00,-9.4,25.6
2015-05-21 01:20:00,0.0,1.90552,0.00048,403.522,0.040,0.3610,0.0018,139.999,45.001,34154.76357,1.91235,405.292,32.375,45.068,45.000,0.00,0.09,-272.72,-272.78,-0,966,-1,20.7,11.0,-10.8,20.5,11.2,-10.7,5.73,1.90,-9.4,25.6
2015-05-21 01:21:00,0.0,1.90531,0.00043,403.506,0.027,0.3623,0.0018,140.003,45.000,34156.35820,1.91218,405.282,32.374,45.068,45.000,0.00,0.09,-272.72,-272.77,-1,966,-1,20.7,11.1,-10.7,20.5,11.3,-10.6,5.73,1.95,-9.4,25.6
2015-05-21 01:22:00,0.0,1.90522,0.00044,403.504,0.036,0.3641,0.0021,140.000,45.000,34155.88829,1.91209,405.289,32.379,45.068,45.000,0.00,0.09,-272.72,-272.77,-1,965,-1,20.6,11.2,-10.7,20.5,11.3,-10.6,5.73,2.04,-9.4,25.6
2015-05-21 01:23:00,0.0,1.90516,0.00034,403.481,0.039,0.3675,0.0020,139.998,45.000,34154.52097,1.91214,405.284,32.376,45.068,45.000,0.00,0.09,-272.72,-272.78,-0,965,-1,20.6,11.3,-10.6,20.5,11.4,-10.5,5.73,2.03,-9.4,25.5
2015-05-21 01:24:00,0.0,1.90534,0.00032,403.498,0.020,0.3665,0.0018,139.998,45.000,34153.88250,1.91229,405.296,32.375,45.068,45.000,0.00,0.09,-272.72,-272.78,-0,964,-1,20.7,11.2,-10.6,20.6,11.4,-10.5,5.73,1.96,-9.4,25.5
2015-05-21 01:25:00,0.0,1.90514,0.00029,403.499,0.023,0.3664,0.0016,140.001,45.000,34159.43035,1.91209,405.297,32.375,45.068,45.000,0.00,0.09,-272.71,-272.78,-0,965,-1,20.7,11.2,-10.6,20.6,11.4,-10.5,5.73,1.93,-9.4,25.5
2015-05-21 01:26:00,0.0,1.90540,0.00053,403.499,0.042,0.3626,0.0015,140.002,45.000,34159.37193,1.91224,405.278,32.371,45.068,45.000,0.00,0.09,-272.72,-272.78,-1,966,-1,20.7,11.1,-10.7,20.5,11.4,-10.5,5.73,1.94,-9.4,25.5
2015-05-21 01:27:00,0.0,1.90513,0.00024,403.519,0.031,0.3645,0.0020,139.996,45.000,34158.74200,1.91205,405.303,32.367,45.068,45.000,0.00,0.09,-272.73,-272.78,-1,966,-1,20.7,11.1,-10.7,20.6,11.3,-10.6,5.73,2.00,-9.4,25.5
2015-05-21 01:28:00,0.0,1.90528,0.00039,403.525,0.027,0.3624,0.0016,139.999,45.000,34157.87714,1.91214,405.304,32.334,45.068,45.000,0.00,0.09,-272.72,-272.78,-1,967,-1,20.7,11.0,-10.8,20.6,11.3,-10.6,5.73,2.03,-9.4,25.5
2015-05-21 01:29:00,0.0,1.90563,0.00031,403.522,0.022,0.3618,0.0013,140.003,45.000,34158.06463,1.91246,405.295,32.314,45.068,45.000,0.00,0.09,-272.72,-272.77,-1,968,-1,20.7,11.0,-10.8,20.6,11.3,-10.6,5.73,2.01,-9.4,25.4
2015-05-21 01:30:00,0.0,1.90553,0.00022,403.514,0.035,0.3624,0.0021,139.995,45.000,34158.22347,1.91242,405.290,32.313,45.068,45.000,0.00,0.09,-272.73,-272.78,-1,968,-1,20.8,11.0,-10.8,20.6,11.3,-10.6,5.73,1.97,-9.4,25.5
2015-05-21 01:31:00,0.0,1.90500,0.00040,403.491,0.033,0.3638,0.0016,139.996,45.000,34160.45809,1.91191,405.275,32.309,45.068,45.000,0.00,0.09,-272.72,-272.78,-1,968,-2,20.7,11.1,-10.7,20.5,11.3,-10.6,5.73,1.94,-9.4,25.5
2015-05-21 01:32:00,0.0,1.90478,0.00032,403.489,0.030,0.3667,0.0019,140.002,45.000,34160.23754,1.91175,405.287,32.306,45.068,45.000,0.00,0.09,-272.72,-272.78,-0,967,-1,20.8,11.2,-10.6,20.6,11.4,-10.5,5.73,1.93,-9.4,25.4
2015-05-21 01:33:00,0.0,1.90469,0.00036,403.494,0.029,0.3665,0.0021,139.999,45.000,34160.49836,1.91164,405.291,32.296,45.068,45.000,0.00,0.09,-272.72,-272.78,-0,967,-2,20.7,11.1,-10.6,20.5,11.4,-10.5,5.73,1.96,-9.4,25.4
2015-05-21 01:34:00,0.0,1.90459,0.00031,403.486,0.038,0.3640,0.0008,139.997,45.000,34159.70987,1.91150,405.272,32.270,45.068,45.000,0.00,0.09,-272.72,-272.78,-1,966,-1,20.8,11.1,-10.7,20.5,11.3,-10.6,5.73,2.01,-9.4,25.5
2015-05-21 01:35:00,0.0,1.90486,0.00047,403.501,0.032,0.3643,0.0020,140.002,45.000,34160.24205,1.91171,405.286,32.260,45.068,45.000,0.00,0.09,-272.71,-272.77,-1,968,-1,20.8,11.1,-10.7,20.5,11.3,-10.6,5.73,2.03,-9.4,25.5
2015-05-21 01:36:00,0.0,1.90450,0.00032,403.510,0.029,0.3622,0.0016,139.998,45.000,34159.93590,1.91139,405.286,32.255,45.068,45.000,0.00,0.09,-272.72,-272.78,-1,969,-1,20.8,11.0,-10.7,20.5,11.3,-10.6,5.73,2.01,-9.3,25.5
2015-05-21 01:37:00,0.0,1.90447,0.00032,403.505,0.035,0.3628,0.0022,139.999,45.000,34160.42298,1.91133,405.283,32.252,45.068,45.000,0.00,0.09,-272.73,-272.78,-1,969,-2,20.8,11.0,-10.7,20.5,11.3,-10.6,5.73,1.97,-9.4,25.5
2015-05-21 01:38:00,0.0,1.90421,0.00035,403.481,0.023,0.3649,0.0023,140.000,45.000,34161.96306,1.91114,405.271,32.251,45.068,45.000,0.00,0.09,-272.72,-272.78,-1,968,-1,20.8,11.0,-10.7,20.5,11.3,-10.6,5.73,1.94,-9.4,25.5
2015-05-21 01:39:00,0.0,1.90428,0.00036,403.500,0.038,0.3657,0.0018,140.000,45.000,34160.72274,1.91122,405.291,32.250,45.068,45.000,0.00,0.09,-272.72,-272.77,-1,967,-1,20.8,11.1,-10.7,20.5,11.3,-10.6,5.73,1.93,-9.4,25.5
2015-05-21 01:40:00,0.0,1.90412,0.00026,403.510,0.024,0.3670,0.0020,139.996,45.000,34160.34988,1.91109,405.309,32.250,45.068,45.000,0.00,0.09,-272.73,-272.79,-1,967,-1,20.8,11.2,-10.6,20.6,11.4,-10.5,5.73,1.97,-9.4,25.5
2015-05-21 01:41:00,0.0,1.90455,0.00034,403.466,0.028,0.3700,0.0025,140.004,45.000,34162.79120,1.91150,405.281,32.250,45.068,45.000,0.00,0.09,-272.72,-272.78,-1,967,-2,20.8,11.3,-10.5,20.5,11.5,-10.4,5.73,2.01,-9.4,25.4
2015-05-21 01:42:00,0.0,1.90479,0.00030,403.493,0.027,0.3672,0.0016,139.997,45.000,34160.89488,1.91175,405.294,32.250,45.068,45.000,0.00,0.09,-272.72,-272.77,-1,968,-2,20.8,11.2,-10.5,20.5,11.5,-10.4,5.73,2.03,-9.4,25.4
2015-05-21 01:43:00,0.0,1.90453,0.00024,403.514,0.019,0.3669,0.0014,139.997,45.000,34159.40703,1.91151,405.314,32.248,45.068,45.000,0.00,0.09,-272.72,-272.78,-1,969,-1,20.8,11.1,-10.6,20.6,11.4,-10.5,5.73,2.01,-9.4,25.5
2015-05-21 01:44:00,0.0,1.90423,0.00037,403.485,0.026,0.3682,0.0014,139.995,45.000,34163.51080,1.91118,405.290,32.249,45.068,45.000,0.00,0.09,-272.73,-272.78,-1,969,-2,20.8,11.2,-10.6,20.5,11.4,-10.5,5.73,1.97,-9.4,25.5
2015-05-21 01:45:00,0.0,1.90430,0.00030,403.457,0.030,0.3677,0.0018,139.995,45.000,34163.65926,1.91130,405.261,32.250,45.068,45.000,0.00,0.09,-272.72,-272.77,-1,968,-2,20.8,11.2,-10.6,20.5,11.4,-10.4,5.73,1.94,-9.4,25.5